Location: Bothwell
(42.3833°S, 147.0000°E)
Time: 01:25:03
(UTC+10:00)

AAUSAT CUBESAT 2 - Visible Passes

Search period start: 26 September 2022 00:00
Search period end: 06 October 2022 01:00
Orbit: 564 x 581 km, 97.5° (Epoch: 24 September)

Date Brightness Start Highest point End Pass type
(mag) Time Alt. Az. Time Alt. Az. Time Alt. Az.
26 Sep ? 04:01:17 10° NNE 04:05:23 83° ESE 04:09:34 10° S visible
27 Sep ? 04:03:53 10° NNE 04:07:59 89° E 04:12:10 10° SSW visible
28 Sep ? 04:06:28 10° NNE 04:10:34 86° WNW 04:14:45 10° SSW visible
29 Sep ? 04:09:02 10° N 04:13:08 80° WNW 04:17:20 10° SSW visible
30 Sep ? 02:40:15 10° ESE 02:41:10 11° ESE 02:42:05 10° SE visible
30 Sep ? 04:11:37 10° N 04:15:43 74° W 04:19:53 10° SSW visible
01 Oct ? 02:42:21 10° E 02:43:41 11° ESE 02:45:01 10° SE visible
01 Oct ? 04:14:10 10° N 04:18:16 69° W 04:22:26 10° SSW visible
02 Oct ? 03:44:34 10° E 03:46:11 12° ESE 03:47:50 10° SE visible
02 Oct ? 05:16:44 10° N 05:20:48 64° W 05:24:57 10° SSW visible
03 Oct ? 03:46:48 10° E 03:48:41 13° ESE 03:50:35 10° SE visible
03 Oct ? 05:19:16 10° N 05:23:20 60° W 05:27:28 10° SSW visible
04 Oct ? 03:49:05 10° E 03:51:10 14° ESE 03:53:17 10° SSE visible
04 Oct ? 05:21:49 10° N 05:25:51 56° W 05:29:58 10° SSW visible
05 Oct ? 03:51:22 10° E 03:53:39 15° ESE 03:55:56 10° SSE visible
05 Oct ? 05:24:21 10° N 05:28:22 52° W 05:32:28 10° SSW visible
